軌道要素
The following orbital elements are taken from MPO166315
Epoch 2011 Aug. 27.0 TT = JDT 2455800.5 MPC
M 9.13518 (2000.0) P Q
n 0.28710662 Peri. 19.91933 +0.81697844 -0.57654173
a 2.2756593 Node 15.30657 +0.52268953 +0.73149653
e 0.9654117 Incl. 2.62212 +0.24360188 +0.36402261
P 3.43 H 23.1 G 0.15 U 9
From 52 observations 2008 Mar. 28-Apr. 8, mean residual 0".54.
|